Flag for Poland Weather past 2 weeks in Wroclaw, Poland

Now
18 °F

Clear.


Feels Like: 7 °F
Forecast: 20 / 24 °F
Wind: 8 mph from East

Location: Wroclaw Ii

Current Time: Dec 27, 2014 at 11:52:58 PM

Latest Report: Dec 27, 2014 at 11:30 PM


Visibility: 10 mi

Pressure: 29.86 "Hg

Humidity: 79%

Dew point: 12 °F

Location of WroclawLocation

Historic Weather in Wroclaw — Graph

°F

Wroclaw temperature yesterday

Maximum temperature yesterday: 41 °F (at 12:30 AM)
Minimum temperature yesterday: 23 °F (at 8:00 PM)
Average temperature yesterday: 31 °F

Past Weeks' High & Low Weather Summary

 TemperatureHumidityPressure
High57 °F (Dec 19, 4:30 AM)100% (Dec 14, 12:30 AM)30.27 "Hg (Dec 14, 12:30 AM)
Low18 °F (Dec 27, 6:30 AM)53% (Dec 20, 10:00 AM)29.59 "Hg (Dec 13, 1:00 AM)
Average43 °F77%29.93 "Hg
* Reported Dec 12 10:00 PM — Dec 27 10:30 PM, Wroclaw, Weather by CustomWeather, © 2014

Note: Actual official high and low records may vary slightly from our data, if they occured in-between our weather recording intervals... More about our weather records

Advertising

Wroclaw weather history for previous 24 hours

 ConditionsComfort  
Time TempWeatherWind HumidityBarometerVisibility
10:30 PM
Dec 27
18 °FClear.10 mph79%29.86 "Hg10 mi
10:00 PM18 °FClear.8 mph79%29.86 "Hg10 mi
9:30 PM18 °FClear.9 mph79%29.86 "Hg10 mi
9:00 PM18 °FClear.9 mph86%29.86 "Hg10 mi
8:30 PM18 °FClear.12 mph86%29.86 "Hg10 mi
8:00 PM18 °FClear.12 mph86%29.86 "Hg10 mi
7:30 PM18 °FPassing clouds.12 mph86%29.83 "HgN/A
7:00 PM18 °FPassing clouds.13 mph86%29.83 "HgN/A
6:30 PM19 °FPassing clouds.12 mph79%29.83 "HgN/A
6:00 PM19 °FPassing clouds.13 mph86%29.83 "HgN/A
5:30 PM19 °FPassing clouds.13 mph86%29.83 "HgN/A
5:00 PM19 °FPassing clouds.13 mph86%29.83 "HgN/A
4:30 PM21 °FClear.12 mph80%29.83 "Hg10 mi
4:00 PM21 °FClear.12 mph80%29.86 "Hg10 mi
3:30 PM21 °FPassing clouds.12 mph86%29.86 "HgN/A
3:00 PM23 °FPassing clouds.12 mph86%29.86 "HgN/A
2:30 PM25 °FPassing clouds.10 mph80%29.86 "HgN/A
2:00 PM25 °FPassing clouds.12 mph80%29.86 "HgN/A
1:30 PM25 °FPassing clouds.13 mph86%29.89 "HgN/A
1:00 PM27 °FPassing clouds.13 mph86%29.89 "HgN/A
12:30 PM27 °FPassing clouds.12 mph86%29.89 "HgN/A
12:00 PM27 °FPassing clouds.10 mph86%29.92 "HgN/A
11:30 AM27 °FPassing clouds.12 mph86%29.92 "HgN/A
11:00 AM27 °FPassing clouds.10 mph80%29.95 "HgN/A
10:30 AM27 °FPassing clouds.9 mph80%29.98 "HgN/A
10:00 AM25 °FSunny.6 mph86%29.98 "Hg10 mi
9:30 AM23 °FSunny.6 mph93%30.01 "Hg10 mi
9:00 AM21 °FSunny.6 mph93%30.01 "Hg10 mi
8:30 AM18 °FSunny.6 mph93%30.01 "Hg10 mi
8:00 AM18 °FSunny.3 mph93%30.04 "Hg10 mi
7:30 AM19 °FClear.5 mph86%30.04 "Hg10 mi
7:00 AM18 °FClear.5 mph93%30.07 "Hg10 mi
6:30 AM18 °FPassing clouds.3 mph93%30.07 "HgN/A
6:00 AM19 °FPassing clouds.3 mph93%30.07 "HgN/A
5:30 AM19 °FPassing clouds.3 mph86%30.09 "HgN/A
4:30 AM23 °FPassing clouds.3 mph93%30.12 "HgN/A
4:00 AM25 °FPartly cloudy.3 mph86%30.12 "HgN/A
3:30 AM27 °FPassing clouds.5 mph80%30.15 "HgN/A
3:00 AM25 °FPassing clouds.5 mph86%30.15 "HgN/A
2:30 AM25 °FPassing clouds.5 mph86%30.15 "HgN/A
2:00 AM21 °FPassing clouds.5 mph86%30.18 "HgN/A
1:30 AM21 °FPassing clouds.2 mph93%30.18 "HgN/A
1:00 AM21 °FPassing clouds.2 mph86%30.18 "HgN/A
12:30 AM21 °FClear.2 mph93%30.18 "Hg10 mi
12:00 AM23 °FClear.1 mph93%30.21 "Hg10 mi
11:30 PM
Dec 26
23 °FPassing clouds.1 mph93%30.21 "HgN/A
11:00 PM23 °FPassing clouds.1 mph93%30.24 "HgN/A
Weather by CustomWeather, © 2014

See weather overviewHow to use our weather pages